Weather History for Howell, MI

Change the Weather History Date:

Saturday, May 18, 2013

  Actual Average Record
Temperature  
Mean Temperature 68 °F -  
Max Temperature 80 °F 65 °F 87 °F (1998)
Min Temperature 55 °F 46 °F 33 °F (2002)
Cooling Degree Days 2    
Growing Degree Days 18 (Base 50)    
Moisture  
Dew Point 44 °F    
Average Humidity 45    
Maximum Humidity 67    
Minimum Humidity 28    
Precipitation  
Precipitation 0.00 in - - ()
Sea Level Pressure  
Sea Level Pressure 30.10 in    
Wind  
Wind Speed 7 mph (ESE)    
Max Wind Speed 16 mph    
Max Gust Speed 20 mph    
Visibility 10 miles    
Events      
Averages and records for this station are not official NWS values.
T = Trace of Precipitation, MM = Missing Value Source: NWS Daily Summary

Daily Weather History Graph

Daily Weather History Graph

Search for Another Location

Airport:

Trip Planner

Search our weather history database for the weather conditions in past years. The results will help you decide how hot, cold, wet, or windy it might be!

Date:

Astronomy

May. 18, 2013 Rise Set
Actual Time 6:10 AM EDT 8:54 PM EDT
Civil Twilight 5:37 AM EDT 9:27 PM EDT
Nautical Twilight 4:56 AM EDT 10:08 PM EDT
Astronomical Twilight 4:09 AM EDT 10:56 PM EDT
Moon 1:48 PM EDT (5/18) 2:12 AM EDT (5/18)
Length of Visible Light 15h 49m
Length of Day
14h 44m
First Quarter, 55% of the Moon is Illuminated
May 18
First Quarter
May 25
Full
May 31
Last Quarter
Jun 8
New
Jun 16
First Quarter

Hourly Weather History & Observations

Time (EDT) Temp. Dew Point Humidity Pressure Visibility Wind Dir Wind Speed Gust Speed Precip Events Conditions
12:15 AM 60.8 °F 42.3 °F 50% 30.14 in 10.0 mi East 9.2 mph - N/A   Mostly Cloudy
12:34 AM 60.4 °F 42.1 °F 51% 30.14 in 10.0 mi ESE 8.1 mph 16.1 mph N/A   Mostly Cloudy
12:55 AM 60.3 °F 40.5 °F 48% 30.14 in 10.0 mi ESE 11.5 mph - N/A   Overcast
1:15 AM 60.1 °F 39.2 °F 46% 30.15 in 10.0 mi East 6.9 mph - N/A   Overcast
1:34 AM 59.5 °F 40.3 °F 49% 30.14 in 10.0 mi East 3.5 mph - N/A   Mostly Cloudy
1:55 AM 58.8 °F 42.1 °F 54% 30.14 in 10.0 mi Calm Calm - N/A   Mostly Cloudy
2:15 AM 58.3 °F 42.4 °F 56% 30.14 in 10.0 mi Calm Calm - N/A   Mostly Cloudy
2:34 AM 58.1 °F 42.1 °F 55% 30.14 in 10.0 mi ENE 3.5 mph - N/A   Mostly Cloudy
2:55 AM 57.4 °F 42.4 °F 57% 30.13 in 10.0 mi NE 4.6 mph - N/A   Overcast
3:15 AM 56.7 °F 42.6 °F 59% 30.13 in 10.0 mi East 3.5 mph - N/A   Scattered Clouds
3:35 AM 56.3 °F 42.8 °F 61% 30.13 in 10.0 mi NE 3.5 mph - N/A   Clear
3:55 AM 55.8 °F 43.0 °F 62% 30.13 in 10.0 mi NE 3.5 mph - N/A   Scattered Clouds
4:15 AM 55.6 °F 43.0 °F 63% 30.13 in 10.0 mi ENE 5.8 mph - N/A   Mostly Cloudy
4:35 AM 55.9 °F 42.8 °F 61% 30.13 in 10.0 mi NE 4.6 mph - N/A   Overcast
4:55 AM 55.6 °F 43.0 °F 63% 30.13 in 10.0 mi ENE 5.8 mph - N/A   Overcast
5:14 AM 55.4 °F 42.8 °F 63% 30.13 in 10.0 mi NE 4.6 mph - N/A   Overcast
5:35 AM 55.6 °F 43.0 °F 63% 30.14 in 10.0 mi NE 5.8 mph - N/A   Overcast
5:55 AM 55.8 °F 43.3 °F 63% 30.14 in 10.0 mi ENE 4.6 mph - N/A   Overcast
6:14 AM 55.4 °F 43.7 °F 65% 30.15 in 10.0 mi NE 3.5 mph - N/A   Overcast
6:35 AM 55.4 °F 43.9 °F 65% 30.15 in 10.0 mi ENE 5.8 mph - N/A   Overcast
6:55 AM 55.6 °F 44.6 °F 67% 30.15 in 10.0 mi East 4.6 mph - N/A   Overcast
7:14 AM 55.8 °F 44.4 °F 66% 30.14 in 10.0 mi East 5.8 mph - N/A   Mostly Cloudy
7:35 AM 56.7 °F 44.4 °F 64% 30.15 in 10.0 mi ESE 5.8 mph - N/A   Mostly Cloudy
7:54 AM 57.9 °F 44.1 °F 60% 30.15 in 10.0 mi East 5.8 mph - N/A   Overcast
8:15 AM 58.6 °F 44.4 °F 59% 30.14 in 10.0 mi ENE 5.8 mph - N/A   Overcast
8:35 AM 59.0 °F 45.3 °F 60% 30.15 in 10.0 mi NE 4.6 mph - N/A   Overcast
8:54 AM 59.9 °F 45.1 °F 58% 30.15 in 10.0 mi ENE 4.6 mph - N/A   Overcast
9:15 AM 60.8 °F 45.5 °F 57% 30.15 in 10.0 mi East 5.8 mph - N/A   Scattered Clouds
9:35 AM 63.3 °F 45.1 °F 52% 30.14 in 10.0 mi East 8.1 mph - N/A   Clear
9:55 AM 66.0 °F 45.3 °F 47% 30.13 in 10.0 mi ESE 6.9 mph - N/A   Clear
10:15 AM 67.5 °F 44.4 °F 43% 30.13 in 10.0 mi East 8.1 mph - N/A   Clear
10:35 AM 69.3 °F 41.9 °F 37% 30.14 in 10.0 mi East 9.2 mph - N/A   Clear
10:55 AM 70.5 °F 43.5 °F 38% 30.14 in 10.0 mi East 4.6 mph - N/A   Scattered Clouds
11:15 AM 71.6 °F 43.7 °F 37% 30.13 in 10.0 mi ENE 5.8 mph - N/A   Mostly Cloudy
11:35 AM 73.2 °F 42.3 °F 33% 30.13 in 10.0 mi East 8.1 mph - N/A   Mostly Cloudy
11:55 AM 72.1 °F 40.1 °F 31% 30.13 in 10.0 mi East 5.8 mph - N/A   Mostly Cloudy
12:15 PM 73.4 °F 43.5 °F 34% 30.12 in 10.0 mi East 8.1 mph - N/A   Overcast
12:34 PM 73.9 °F 43.0 °F 33% 30.12 in 10.0 mi East 8.1 mph - N/A   Mostly Cloudy
12:55 PM 76.6 °F 40.8 °F 28% 30.12 in 10.0 mi ESE 11.5 mph 17.3 mph N/A   Scattered Clouds
1:15 PM 76.6 °F 41.9 °F 29% 30.11 in 10.0 mi SE 8.1 mph - N/A   Clear
1:34 PM 77.4 °F 43.0 °F 29% 30.10 in 10.0 mi SE 15.0 mph 18.4 mph N/A   Clear
1:55 PM 78.1 °F 42.8 °F 28% 30.10 in 10.0 mi ESE 12.7 mph 17.3 mph N/A   Clear
2:15 PM 79.0 °F 43.3 °F 28% 30.09 in 10.0 mi SE 12.7 mph - N/A   Clear
2:34 PM 79.5 °F 44.6 °F 29% 30.09 in 10.0 mi ESE 12.7 mph - N/A   Clear
3:15 PM 79.7 °F 44.8 °F 29% 30.07 in 10.0 mi ESE 9.2 mph 16.1 mph N/A   Clear
3:34 PM 79.9 °F 46.2 °F 30% 30.07 in 10.0 mi SE 12.7 mph - N/A   Clear
3:55 PM 80.8 °F 47.3 °F 31% 30.06 in 10.0 mi SE 9.2 mph - N/A   Clear
4:15 PM 80.1 °F 47.1 °F 31% 30.06 in 10.0 mi ESE 12.7 mph - N/A   Clear
4:34 PM 80.6 °F 48.0 °F 32% 30.05 in 10.0 mi SSE 11.5 mph 16.1 mph N/A   Clear
4:55 PM 80.4 °F 48.7 °F 33% 30.05 in 10.0 mi SE 10.4 mph - N/A   Clear
5:15 PM 80.1 °F 49.1 °F 34% 30.05 in 10.0 mi SE 16.1 mph 19.6 mph N/A   Clear
5:35 PM 79.9 °F 49.1 °F 34% 30.05 in 10.0 mi SE 12.7 mph 17.3 mph N/A   Clear
5:55 PM 80.1 °F 48.7 °F 33% 30.04 in 10.0 mi SSE 9.2 mph - N/A   Clear
6:15 PM 79.2 °F 47.3 °F 33% 30.04 in 10.0 mi SE 8.1 mph - N/A   Clear
6:35 PM 78.8 °F 47.1 °F 33% 30.04 in 10.0 mi SE 10.4 mph - N/A   Clear
6:55 PM 78.1 °F 46.0 °F 32% 30.04 in 10.0 mi ESE 10.4 mph - N/A   Clear
7:15 PM 77.4 °F 46.2 °F 33% 30.05 in 10.0 mi SE 11.5 mph - N/A   Clear
7:35 PM 76.5 °F 45.1 °F 33% 30.04 in 10.0 mi SE 9.2 mph - N/A   Clear
7:54 PM 75.6 °F 44.8 °F 33% 30.04 in 10.0 mi SE 9.2 mph - N/A   Clear
8:15 PM 74.5 °F 43.7 °F 33% 30.05 in 10.0 mi SE 9.2 mph - N/A   Clear
8:35 PM 73.4 °F 43.0 °F 34% 30.05 in 10.0 mi SE 8.1 mph - N/A   Clear
8:54 PM 71.1 °F 42.8 °F 36% 30.05 in 10.0 mi SE 6.9 mph - N/A   Clear
9:15 PM 70.9 °F 41.2 °F 34% 30.05 in 10.0 mi SE 8.1 mph - N/A   Clear
9:35 PM 69.1 °F 41.2 °F 36% 30.05 in 10.0 mi SE 8.1 mph - N/A   Clear
9:54 PM 68.0 °F 41.9 °F 39% 30.05 in 10.0 mi SE 6.9 mph - N/A   Clear
10:15 PM 67.6 °F 42.1 °F 39% 30.06 in 10.0 mi SE 8.1 mph - N/A   Clear
10:34 PM 66.2 °F 42.8 °F 43% 30.06 in 10.0 mi SE 8.1 mph - N/A   Clear
10:55 PM 65.5 °F 43.2 °F 44% 30.05 in 10.0 mi SE 8.1 mph - N/A   Clear
11:15 PM 64.8 °F 44.2 °F 47% 30.05 in 10.0 mi SE 8.1 mph - N/A   Clear
11:34 PM 63.9 °F 44.6 °F 50% 30.05 in 10.0 mi SE 8.1 mph - N/A   Clear
11:55 PM 63.5 °F 44.8 °F 51% 30.05 in 10.0 mi SE 8.1 mph - N/A   Clear